Location: Ash Observatory
(39.7321°N, 75.2004°W)
Time: 17:16:21
(UTC-04:00)

ISS - Visible Passes

Search period start: 24 March 2019 00:00
Search period end: 03 April 2019 00:00
Orbit: 408 x 411 km, 51.6° (Epoch: 24 March)

Date Brightness Start Highest point End Pass type
(mag) Time Alt. Az. Time Alt. Az. Time Alt. Az.
24 Mar -1.6 20:43:03 10° W 20:45:47 24° NNW 20:48:17 11° NNE visible
25 Mar -2.3 19:51:55 10° W 19:55:00 36° NNW 19:58:06 10° NE visible
25 Mar -0.9 21:30:51 10° NW 21:32:20 12° N 21:32:44 12° N visible
26 Mar -1.0 20:39:21 10° NW 20:41:23 15° NNW 20:43:25 10° NNE visible
27 Mar -1.4 19:47:57 10° WNW 19:50:28 20° NNW 19:53:00 10° NNE visible
27 Mar -0.8 21:27:16 10° NNW 21:28:04 11° N 21:28:30 10° N visible
28 Mar -0.9 20:35:50 10° NNW 20:37:02 11° N 20:38:15 10° NNE visible
29 Mar -1.1 19:44:17 10° NW 19:46:02 13° NNW 19:47:46 10° NNE visible
29 Mar -0.9 21:22:39 10° NNW 21:23:46 11° N 21:23:59 11° N visible
30 Mar -0.9 20:31:56 10° NNW 20:32:43 11° N 20:33:29 10° NNE visible
30 Mar -0.4 22:07:53 10° NNW 22:08:02 11° NNW 22:08:02 11° NNW visible
31 Mar -1.3 21:17:25 10° NNW 21:19:19 15° NNE 21:19:19 15° NNE visible
01 Apr -1.2 20:26:56 10° NNW 20:28:19 12° N 20:29:43 10° NE visible
01 Apr -0.7 22:02:39 10° NW 22:03:20 15° NNW 22:03:20 15° NNW visible
02 Apr -1.9 21:12:06 10° NNW 21:14:37 22° NNE 21:14:37 22° NNE visible
